• MPC Preparation (Info)

  • MPEC 2023-J64 : S/2006 S 14

    The following Minor Planet Electronic Circular may be linked-to from your own Web pages, but must not otherwise be redistributed electronically.

    A form allowing access to any MPEC is at the bottom of this page.


    Read MPEC 2023-J63 Read MPEC 2023-J65


    M.P.E.C. 2023-J64                                   Issued 2023 May 8, 20:43 UT
    
         The Minor Planet Electronic Circulars contain information on unusual
             minor planets, routine data on comets and natural satellites,
             and occasional editorial announcements.  They are published
        on behalf of Division F of the International Astronomical Union by the
              Minor Planet Center, Smithsonian Astrophysical Observatory,
                              Cambridge, MA 02138, U.S.A.
    			  
                 Prepared using the Tamkin Foundation Computer Network
    
                                  MPC@CFA.HARVARD.EDU
                URL https://www.minorplanetcenter.net/    ISSN 1523-6714
    
                                   S/2006 S 14                               
                               Satellite of Saturn                           
    
    
    Observations:
        SK06S140*5C2006 01 05.58778 08 51 14.849+18 20 39.71               cEJ064568
        SK06S140 5C2006 01 05.64439 08 51 13.962+18 20 44.32               cEJ064568
        SK06S140 5C2006 01 06.55010 08 50 59.277+18 21 55.35         25.6 RcEJ064568
        SK06S140 5C2006 01 06.56223 08 50 59.084+18 21 56.47         25.8 RcEJ064568
        SK06S140 RC2019 07 03.38705 19 11 43.90 -21 51 54.6                cEJ064568
        SK06S140 RC2019 07 03.47861 19 11 42.19 -21 51 58.5                cEJ064568
        SK06S140 RC2019 07 04.39552 19 11 25.37 -21 52 33.6                cEJ064568
        SK06S140 RC2019 07 04.40411 19 11 25.21 -21 52 33.9          26.2 wcEJ064568
        SK06S140 RC2020 06 24.46348 20 13 05.02 -20 18 36.4                cEJ064568
        SK06S140 RC2020 06 24.49504 20 13 04.55 -20 18 38.3                cEJ064568
        SK06S140 RC2020 06 24.52648 20 13 04.08 -20 18 40.1                cEJ064568
        SK06S140 RC2020 06 29.46061 20 11 49.25 -20 23 20.3          26.3 wcEJ064568
        SK06S140 RC2020 06 29.52346 20 11 48.23 -20 23 23.9                cEJ064568
        SK06S140 RC2020 06 29.55492 20 11 47.72 -20 23 25.8                cEJ064568
        SK06S140 RC2020 07 24.42460 20 04 34.95 -20 48 45.7                cEJ064568
        SK06S140 RC2020 07 24.43033 20 04 34.86 -20 48 46.2                cEJ064568
        SK06S140 RC2020 07 24.45322 20 04 34.46 -20 48 47.4                cEJ064568
        SK06S140 RC2021 07 09.46273 20 56 06.46 -18 06 24.2          26.5 wcEJ064568
        SK06S140 RC2021 07 09.52602 20 56 05.40 -18 06 28.5          26.4 wcEJ064568
    
    Observer details:
    568 Maunakea.  Observers S. S. Sheppard, D. C. Jewitt, J. Kleyna, E. J.
        Ashton, B. J. Gladman, J.-M. Petit, M. Alexandersen.  Measurers S. S.
        Sheppard, E. J. Ashton.  8.3-m Subaru Telescope + CCD, CFHT 3.5m + CCD.
    
    Orbital elements:
        S/2006 S 14                                                                 
    Epoch 2023 Feb. 25.0 TT = JDT 2460000.5                 Alexandersen            
    M 355.10569              (2000.0)            P               Q                  
    n   0.31286929     Peri.  179.64569     -0.34573305     +0.90354330             
    a   0.1415658      Node   289.88535     +0.86024012     +0.41295617             
    e   0.0560268      Incl.  164.38411     +0.37477406     -0.11435339             
    P   3.15           H   16.5           P/d  1150.64                              
    From 19 observations 2006 Jan. 05-2021 Jul. 09, mean residual 0".07             
    
    Residuals in seconds of arc
    060105 568  0.2-  0.1-    190704 568  0.0   0.1-    200724 568  0.3-  0.0
    060105 568  0.4+  0.1+    200624 568  0.0   0.1+    200724 568  0.0   0.2-
    060106 568  0.2-  0.0     200624 568  0.1+  0.1-    200724 568  0.3+  0.0
    060106 568  0.0   0.2+    200624 568  0.1+  0.1-    210709 568  0.0   0.3-
    190703 568  0.1-  0.2+    200629 568  0.0   0.0     210709 568  0.0   0.1-
    190703 568  0.0   0.2-    200629 568  0.1-  0.1+
    190704 568  0.0   0.2-    200629 568  0.1-  0.0
    
    
    M. P. C. Staff               (C) Copyright 2023 MPC           M.P.E.C. 2023-J64
    


    Read MPEC 2023-J63 Read MPEC 2023-J65


    MPEC number:

    Enter an MPEC number in one of the following forms:

    • 1997-B01 (the full form)
    • J97B01 (the packed version of the full form)
    • B01 (the abbreviated form)